Regional Weather Roundup
Issued by NWS

Home | Current Version | Previous Version | Text Only | Print | Product List | Glossary Off
Versions: 1 2 3 4 5 6 7 8 9 10 11 12 13 14 15 16 17 18 19 20 21 22 23 24 25 26 27 28 29 30 31 32 33 34 35 36 37 38 39 40 41 42 43 44 45 46 47 48 49 50

000
ASUS43 KMKX 270521
RWRWI

WISCONSIN REGIONAL WEATHER ROUNDUP
NATIONAL WEATHER SERVICE MILWAUKEE/SULLIVAN WI
1100 PM CST SUN FEB 26 2017

NOTE: "FAIR" INDICATES FEW OR NO CLOUDS BELOW 12,000 FEET WITH NO
SIGNIFICANT WEATHER AND/OR OBSTRUCTIONS TO VISIBILITY.

WIZ001-002-006>008-014>016-023>028-270600-
NORTHWEST WISCONSIN

CITY           SKY/WX    TMP DP  RH WIND       PRES   REMARKS
SUPERIOR ARPT  CLEAR      7   3  85 SW3       29.96R
ASHLAND        CLEAR      8   5  87 S3        29.96S
HAYWARD        CLEAR     11   7  84 CALM      29.93F
SIREN          MOCLDY    15   9  76 CALM      29.94F
CUMBERLAND     CLOUDY    23  16  74 CALM      29.94R
RICE LAKE      CLOUDY    22  15  72 CALM      29.96S
CHETEK         CLOUDY    19  13  76 CALM      29.96S
LADYSMITH      CLEAR     13  10  87 CALM      29.96S
EAU CLAIRE     CLOUDY    22  17  81 CALM      29.97R
MENOMONIE      CLOUDY    26  13  58 CALM      29.97S
NEW RICHMOND   CLOUDY    27  17  68 CALM      29.95F
OSCEOLA        CLOUDY    26  17  66 CALM      29.98S
$$

WIZ003>005-009-010-017-018-270600-
NORTH CENTRAL WISCONSIN

CITY           SKY/WX    TMP DP  RH WIND       PRES   REMARKS
MANITOWISH WTR CLEAR      0  -1  94 CALM      29.91R
ARBOR VITAE    CLEAR     10   8  89 CALM        N/A
WOODRUFF       CLEAR     10   8  89 CALM        N/A
RHINELANDER    CLEAR      1   1 100 CALM      29.92R
EAGLE RIVER    CLEAR      6   2  84 CALM      29.91R
LAND O LAKES   CLEAR      0  -3  85 CALM      29.92R
PHILLIPS       CLEAR      4   2  91 CALM      29.92S
TOMAHAWK       CLEAR      9   6  90 CALM      29.94R
MEDFORD        CLEAR     18  10  70 CALM      29.93R
MERRILL        NOT AVBL
$$

WIZ029-030-035-036-043>047-270600-
CENTRAL WISCONSIN

CITY           SKY/WX    TMP DP  RH WIND       PRES   REMARKS
WAUSAU         CLEAR     26  17  68 NW6       29.93R WCI  19
MOSINEE        PTCLDY    27  21  80 SW5       29.95R WCI  21
MARSHFIELD     CLEAR     23  18  81 W7        29.94R WCI  15
STEVENS POINT  CLEAR     27  21  78 W6        29.96R WCI  20
WAUPACA        CLEAR     31  22  68 W7        29.98R WCI  24
WAUTOMA        NOT AVBL
WISC RAPIDS    CLEAR     28  22  78 W7        29.98R WCI  21
CAMP DOUGLAS   CLEAR     27  21  79 W5        29.99R WCI  21
$$

WIZ011>013-019>022-031-037>040-048>050-270600-
NORTHEAST WISCONSIN

CITY           SKY/WX    TMP DP  RH WIND       PRES   REMARKS
ANTIGO         PTCLDY    19  13  80 N5        29.93R WCI  12
SHAWANO        CLOUDY    32  20  62 CALM      29.97R
OCONTO         CLOUDY    29  20  68 W3        29.96R
STURGEON BAY   CLEAR     29  22  75 W5        29.97R WCI  24
GREEN BAY      CLEAR     31  22  69 W9        29.97R WCI  23
MANITOWOC      CLEAR     32  22  66 W6        29.98R WCI  26
APPLETON       PTCLDY    28  18  64 W9        29.95R WCI  20
CLINTONVILLE   CLEAR     30  19  64 CALM      29.96R
OSHKOSH        CLEAR     31  20  63 W6        29.98R WCI  25
$$

WIZ032>034-041-042-053>061-270600-
SOUTHWEST WISCONSIN

CITY           SKY/WX    TMP DP  RH WIND       PRES   REMARKS
LA CROSSE      CLEAR     28  22  78 SE6       30.01S WCI  22
SPARTA         CLEAR     26  22  86 CALM      30.02R
VIROQUA        CLEAR     25  23  91 SW5       29.99R WCI  20
BOSCOBEL       CLEAR     26  22  84 CALM      30.03R
PRAIRIE DU CHI CLEAR     27  23  84 CALM      30.03S
PLATTEVILLE    CLEAR     31  25  81 W3        30.02S
$$

WIZ056-057-062-063-064-067-068-270600-
SOUTH CENTRAL WISCONSIN

CITY           SKY/WX    TMP DP  RH WIND       PRES   REMARKS
REEDSBURG      CLEAR     29  23  79 SW5       30.00R WCI  23
BARABOO/DELLS  CLEAR     29  22  74 SW5       30.00R WCI  24
LONE ROCK      CLEAR     31  24  75 CALM      30.03R
MINERAL POINT  CLEAR     32  28  86 W3        30.01R
MADISON        CLEAR     30  23  75 W3        30.01R
MIDDLETON      CLEAR     30  24  77 W6        30.02R WCI  24
WATERTOWN      CLEAR     32  24  72 W5        30.00R WCI  27
MONROE         CLEAR     32  25  74 W9        30.02R WCI  24
JANESVILLE     CLEAR     32  25  74 SW6       30.03R WCI  26
$$

WIZ051-052-058>065-066-070>072-270600-
SOUTHEAST WISCONSIN

CITY           SKY/WX    TMP DP  RH WIND       PRES   REMARKS
MILWAUKEE      PTCLDY    36  23  59 SW7       30.01R WCI  30
WAUKESHA       CLEAR     32  23  69 SW6       30.02R WCI  26
MILWAUKEE/TIMM CLEAR     32  21  64 SW5       30.02R WCI  27
RACINE         PTCLDY    36  28  73 SW8       30.04R WCI  30
KENOSHA        PTCLDY    36  29  75 SW10      30.03R WCI  28
FOND DU LAC    CLEAR     31  20  63 W6        29.99R WCI  25
SHEBOYGAN      CLEAR     32  22  66 W10       29.98R WCI  24
WEST BEND      CLEAR     32  23  69 W6        30.00R WCI  26
JUNEAU         PTCLDY    29  23  76 SW9       30.02R WCI  21
$$

LSZ147-162-270600-
LAKE SUPERIOR

STATION/POSITION TIME  TEMP    WIND        PRES    WAVE
                       AIR SEA DIR/SP/G            HT/PER
                 (UTC) (F)     (DEG/KT/KT) (MB)    (FT/S)
DEVILS ISLAND    0500   25     260/ 14/ 17 1015.0R
PORT WING        0440   12     140/  3/  4 1014.2S
SAXON HARBOR     0440   13     200/  4/  6 1014.6R
$$

LMZ867-665-643>646-270600-
LAKE MICHIGAN

STATION/POSITION TIME  TEMP    WIND        PRES    WAVE
                       AIR SEA DIR/SP/G            HT/PER
                 (UTC) (F)     (DEG/KT/KT) (MB)    (FT/S)
CHAMBERS ISLAND  0440   29     330/ 12/ 15 1014.2R
NORTHPORT PIER   0500   28     340/ 14/ 20 1015.2
SISTER BAY       0435   28     350/ 13/ 16   N/A
KEWAUNEE LAKESHO 0500   33     270/  5/  8 1014.2
SHEBOYGAN LAKESH 0500   35     250/  7/  8 1016.1R
PORT WASHINGTON  0440   32     250/  2/  3 1016.6R
MILWAUKEE LAKESH 0500   37     240/  9/ 11   N/A
KENOSHA   LAKESH 0500   39     230/  9/ 14 1016.9
$$

TC  - TEMPERATURE IN CELSIUS
VSB - VISIBILITY IN STATUTE MILES
WCI - WIND CHILL INDEX
HX  - HEAT INDEX





USA.gov is the U.S. government's official web portal to all federal, state and local government web resources and services.